Simultaneous Nadir Overpasses (SNOs) Predictions

Prediction of SNOs between GOES-17 and METOP-C Satellite Orbit:

Table of predicted SNOs for the next 14.0 days since TLE Epoch: 8/31/2024
Index Date Time (GOES-17) GOES-17 Lat,Lon METOP-C Lat,Lon Distance(km) Time Diff (sec)
1 08/31/2024 04:13:00 -0.00,-104.68 0.88,-100.73 449.67 14
2 09/01/2024 16:30:50 0.00,-104.72 0.12,-105.31 66.46 80
3 09/04/2024 04:31:55 -0.00,-104.68 -0.05,-104.92 27.43 80
4 09/06/2024 16:30:11 -0.00,-104.72 -0.04,-104.50 25.63 80
5 09/09/2024 04:25:56 -0.00,-104.68 0.15,-104.11 65.07 80
6 09/10/2024 16:44:50 0.01,-104.72 0.91,-108.67 450.81 80
7 09/11/2024 16:26:52 0.01,-104.71 -0.24,-103.69 117.68 80
8 09/13/2024 04:45:53 -0.02,-104.66 -0.83,-108.28 411.79 80
